Santuari del Coll - Susqueda





Hora UTC 09:45
Temperatura 12.0 ºC
Humitat 84.0 %
Pressió 1010.5 hPa
Pluja 0.6 mm
Velocitat vent 1.6 km/h
Direcció vent NW

Dades diàries 2021-05-14



Hora UTC (hivern +1h; estiu +2h)
Temperatura (ºC) Humitat (%) Pressió (hPa) Velocitat vent (km/h) Precipitació (mm)
Hora UTC Aire Humitat Pressió Vel. Dir. Vel. Max Dir. Intent. màx 5 min.
00:05 8.6 86.0 1008.9 0.0 S 0.0 0.0
00:10 8.4 86.0 1008.8 4.8 SSE 4.8 0.0
00:15 8.4 87.0 1008.7 8.0 SSE 9.7 0.0
00:20 8.4 87.0 1008.8 6.4 SSE 11.3 0.0
00:25 8.4 87.0 1008.9 0.0 NW 9.7 0.0
00:30 8.3 87.0 1008.9 1.6 NW 6.4 0.0
00:35 8.2 87.0 1008.9 0.0 WNW 3.2 0.0
00:40 8.2 88.0 1008.9 0.0 WNW 3.2 0.0
00:45 8.2 88.0 1008.9 1.6 WNW 3.2 0.0
00:50 8.2 89.0 1008.9 1.6 WSW 3.2 0.0
00:55 8.2 89.0 1008.8 0.0 WSW 1.6 0.0
01:00 8.2 89.0 1008.7 0.0 S 4.8 0.0
01:05 8.2 89.0 1008.7 4.8 S 4.8 0.0
01:10 8.3 89.0 1008.7 1.6 SSE 8.0 0.0
01:15 8.3 89.0 1008.7 0.0 SSE 9.7 0.0
01:20 8.3 89.0 1008.6 0.0 S 9.7 0.0
01:25 8.3 89.0 1008.5 0.0 SW 3.2 0.0
01:30 8.3 89.0 1008.5 0.0 SW 3.2 0.0
01:35 8.3 90.0 1008.5 3.2 WSW 3.2 0.0
01:40 8.3 90.0 1008.5 3.2 SW 8.0 0.0
01:45 8.3 90.0 1008.4 0.0 SSW 8.0 0.0
01:50 8.3 90.0 1008.3 0.0 SW 4.8 0.0
01:55 8.3 90.0 1008.3 0.0 SW 3.2 0.0
02:00 8.3 90.0 1008.3 0.0 SW 3.2 0.0
02:05 8.3 90.0 1008.3 0.0 SSW 3.2 0.0
02:10 8.3 90.0 1008.3 0.0 SW 3.2 0.0
02:15 8.2 90.0 1008.4 1.6 SW 3.2 0.0
02:20 8.2 90.0 1008.3 1.6 SW 3.2 0.0
02:25 8.2 91.0 1008.3 3.2 WSW 6.4 0.0
02:30 8.2 91.0 1008.3 3.2 WSW 6.4 0.0
02:35 8.2 91.0 1008.3 1.6 SW 3.2 0.0
02:40 8.2 91.0 1008.1 0.0 SW 3.2 0.0
02:45 8.2 91.0 1008.1 0.0 WSW 4.8 0.0
02:50 8.2 91.0 1008.2 0.0 WSW 4.8 0.0
02:55 8.1 91.0 1008.1 0.0 SW 1.6 0.0
03:00 8.1 92.0 1008.1 0.0 SW 1.6 0.0
03:05 8.1 92.0 1008.0 0.0 SW 1.6 0.0
03:10 8.1 92.0 1008.0 0.0 SW 1.6 0.0
03:15 8.1 91.0 1008.0 0.0 SW 0.0 0.0
03:20 8.1 92.0 1008.0 0.0 SW 0.0 0.0
03:25 8.1 92.0 1008.1 0.0 SW 1.6 0.0
03:30 8.0 92.0 1008.1 0.0 SW 1.6 0.0
03:35 8.1 92.0 1008.1 0.0 SW 1.6 0.0
03:40 8.1 92.0 1008.2 0.0 SW 0.0 0.0
03:45 8.0 92.0 1008.2 0.0 SW 0.0 0.0
03:50 8.1 92.0 1008.3 0.0 SW 0.0 0.0
03:55 8.1 92.0 1008.3 0.0 SW 0.0 0.0
04:00 8.1 92.0 1008.3 0.0 SW 0.0 0.0
04:05 8.1 92.0 1008.3 0.0 SW 0.0 0.0
04:10 8.0 92.0 1008.2 0.0 SW 1.6 0.0
04:15 8.0 92.0 1008.2 0.0 SW 1.6 0.0
04:20 7.9 92.0 1008.3 1.6 W 3.2 0.0
04:25 7.9 92.0 1008.3 0.0 SSE 3.2 0.0
04:30 7.9 92.0 1008.2 0.0 SE 8.0 0.0
04:35 7.9 92.0 1008.2 1.6 NE 8.0 0.0
04:40 7.8 92.0 1008.2 1.6 E 4.8 0.0
04:45 7.8 92.0 1008.2 3.2 ESE 6.4 0.0
04:50 7.8 92.0 1008.2 0.0 SE 6.4 0.0
04:55 7.8 92.0 1008.4 4.8 SSE 6.4 0.0
05:00 7.8 91.0 1008.3 8.0 SSE 8.0 0.0
05:05 7.8 91.0 1008.3 4.8 SE 8.0 0.0
05:10 7.8 90.0 1008.3 3.2 SSE 9.7 0.0
05:15 7.9 90.0 1008.4 1.6 NNE 9.7 0.0
05:20 7.9 89.0 1008.4 0.0 ENE 9.7 0.0
05:25 8.0 89.0 1008.4 1.6 E 4.8 0.0
05:30 8.1 89.0 1008.4 1.6 NW 6.4 0.0
05:35 8.1 88.0 1008.5 1.6 E 6.4 0.0
05:40 8.2 88.0 1008.5 0.0 SSE 8.0 0.0
05:45 8.2 88.0 1008.4 0.0 SW 6.4 0.0
05:50 8.2 88.0 1008.4 1.6 WNW 6.4 0.0
05:55 8.2 88.0 1008.5 0.0 S 4.8 0.0
06:00 8.2 88.0 1008.6 0.0 SSE 8.0 0.0
06:05 8.2 88.0 1008.7 0.0 SSE 8.0 0.0
06:10 8.2 89.0 1008.7 0.0 SSE 1.6 0.0
06:15 8.3 89.0 1008.6 1.6 SSE 3.2 0.0
06:20 8.4 90.0 1008.7 0.0 W 4.8 0.0
06:25 8.4 90.0 1008.9 0.0 SSW 4.8 0.0
06:30 8.4 91.0 1008.8 1.6 SW 4.8 0.0
06:35 8.3 91.0 1008.9 1.6 NW 4.8 0.0
06:40 8.1 89.0 1008.8 6.4 S 9.7 0.2
06:45 7.7 89.0 1008.9 3.2 SE 8.0 0.0
06:50 7.4 89.0 1008.8 3.2 SSE 12.9 0.2
06:55 7.4 90.0 1008.9 1.6 SSE 12.9 0.0
07:00 7.6 91.0 1009.1 1.6 ENE 12.9 0.0
07:05 7.4 91.0 1009.1 1.6 S 12.9 0.0
07:10 7.6 91.0 1009.3 4.8 SSE 12.9 0.0
07:15 7.5 91.0 1009.3 1.6 SSE 12.9 0.0
07:20 7.6 91.0 1009.4 0.0 SSE 12.9 0.0
07:25 7.5 91.0 1009.2 6.4 SSE 12.9 0.0
07:30 7.6 92.0 1009.3 1.6 ESE 12.9 0.0
07:35 7.6 92.0 1009.2 0.0 ESE 6.4 0.2
07:40 7.7 93.0 1009.3 6.4 NE 8.0 0.0
07:45 7.8 93.0 1009.4 4.8 S 9.7 0.0
07:50 7.7 93.0 1009.4 4.8 SE 9.7 0.0
07:55 7.7 93.0 1009.5 3.2 SE 6.4 0.0
08:00 7.7 93.0 1009.6 0.0 SE 6.4 0.0
08:05 7.7 94.0 1009.9 0.0 SE 4.8 0.0
08:10 7.8 94.0 1010.0 0.0 SE 3.2 0.0
08:15 8.1 94.0 1009.9 0.0 S 4.8 0.0
08:20 8.3 94.0 1010.0 1.6 E 11.3 0.0
08:25 8.4 94.0 1009.9 1.6 WNW 12.9 0.0
08:30 8.4 94.0 1009.9 4.8 WNW 12.9 0.0
08:35 8.6 94.0 1009.9 0.0 SSW 12.9 0.0
08:40 8.7 94.0 1010.1 3.2 SW 12.9 0.0
08:45 8.9 94.0 1010.0 3.2 WSW 6.4 0.0
08:50 9.2 94.0 1010.1 1.6 NE 6.4 0.0
08:55 9.3 94.0 1010.0 8.0 NW 9.7 0.0
09:00 9.6 94.0 1010.1 0.0 SSE 9.7 0.0
09:05 9.6 93.0 1010.3 1.6 NW 9.7 0.0
09:10 9.5 93.0 1010.4 1.6 WNW 11.3 0.0
09:15 9.8 94.0 1010.4 6.4 NW 9.7 0.0
09:20 10.3 94.0 1010.5 4.8 NNW 12.9 0.0
09:25 10.7 92.0 1010.4 1.6 WNW 8.0 0.0
09:30 11.0 91.0 1010.5 1.6 N 12.9 0.0
09:35 11.4 88.0 1010.4 0.0 NW 12.9 0.0
09:40 11.8 87.0 1010.5 0.0 SSW 9.7 0.0
09:45 12.0 84.0 1010.5 1.6 NW 11.3 0.0
Màxima 12.1 94.0 1010.5 8.0 NW 12.9 0.2
Mínima 7.4 84.0 1008.0
Total 0.6